Location: Bright Sky Observatory
(40.7821°N, 74.2425°W)
Time: 22:18:19
(UTC-04:00)

Amateur Radio Satellites - All Passes

Search period start: 23 July 2014 21:48
Search period end: 24 July 2014 21:48
Location: Bright Sky Observatory, 40.7821°N, 74.2425°W

Satellite Date Start Highest point End Downlink Frequencies (MHz)
Time Altitude Azimuth
UKube-1 23 Jul 21:50:35 21:54:48 48° 260° (W) 21:59:03 145.840 MHz, 145.915 MHz
SO-50 23 Jul 22:04:56 22:08:58 27° 47° (NE) 22:13:03 436.795 FM
MaSat-1 23 Jul 22:12:36 22:15:58 30° 105° (ESE) 22:19:51 437.345 MHz
Oscar 11 23 Jul 22:42:55 22:46:36 27° 264° (W) 22:50:18 145.825 FM, Beacon 2401.500 USB
FUNcube-1 23 Jul 22:47:13 22:51:37 69° 258° (WSW) 22:55:55 145.950 - 145.970 MHz USB
UOSAT-12 23 Jul 23:00:17 23:01:14 11° 34° (NNE) 23:02:11 437.025 FM, 437.400 FM
HO-68 23 Jul 23:08:38 23:11:59 14° 272° (W) 23:15:20 435.675 MHz FM
RS-15 23 Jul 23:24:32 23:35:35 73° 55° (NE) 23:47:01 29.354 - 29.394 USB, Beacon 29.352 USB
SO-50 23 Jul 23:45:12 23:49:39 40° 244° (WSW) 23:54:09 436.795 FM
AO-40 23 Jul 23:45:24 05:21:28 40° 182° (S) 11:24:34 Beacon 2401.320
Lituanica SAT-1 23 Jul 23:47:04 23:48:43 20° 136° (SE) 23:50:23 437.275 MHz beacon
MaSat-1 23 Jul 23:49:58 23:53:21 25° 308° (NW) 23:57:11 437.345 MHz
UOSAT-12 24 Jul 00:37:47 00:42:27 55° 54° (NE) 00:47:02 437.025 FM, 437.400 FM
Lituanica SAT-1 24 Jul 01:19:46 01:21:29 21° 332° (NNW) 01:23:13 437.275 MHz beacon
ISS 24 Jul 01:21:33 01:24:38 36° 137° (SE) 01:27:45 145.800 FM
Sapphire 24 Jul 01:34:00 01:38:47 33° 110° (ESE) 01:43:36 437.095 MHz 1200 baud AX-25 AFSK
RS-15 24 Jul 01:37:53 01:47:01 31° 255° (WSW) 01:56:28 29.354 - 29.394 USB, Beacon 29.352 USB
JAS-1B 24 Jul 01:53:30 01:58:29 15° 81° (E) 02:03:09 435.800 - 435.900 CW/SSB
PCSat 24 Jul 02:07:18 02:12:39 71° 116° (ESE) 02:18:04 145.825 MHz
Oscar 19 24 Jul 02:09:16 02:14:11 43° 99° (E) 02:19:04 437.125 CW, 437.150 USB
UOSAT-12 24 Jul 02:19:05 02:22:09 17° 251° (WSW) 02:25:11 437.025 FM, 437.400 FM
Oscar 16 24 Jul 02:36:29 02:41:40 82° 103° (ESE) 02:46:50 437.025 USB, Beacon 2401.1428
ITAMSAT 1 24 Jul 02:45:44 02:50:41 43° 99° (E) 02:55:34 435.822 SSB
Gurwin Techsat 1B 24 Jul 02:54:44 02:58:48 22° 93° (E) 03:02:51 435.225 FM
ISS 24 Jul 02:58:21 03:01:23 31° 334° (NNW) 03:04:25 145.800 FM
OPAL 24 Jul 03:01:36 03:05:34 25° 63° (ENE) 03:09:32 ?
AO-27 24 Jul 03:03:18 03:08:28 65° 102° (ESE) 03:13:36 436.795 MHz FM
Uribyol 2 24 Jul 03:06:31 03:11:42 73° 103° (ESE) 03:16:50 436.500 FM
AO-Echo 24 Jul 03:09:58 03:15:09 79° 103° (ESE) 03:20:08 ?
Sapphire 24 Jul 03:17:12 03:22:08 35° 308° (NW) 03:27:07 437.095 MHz 1200 baud AX-25 AFSK
JAS-1B 24 Jul 03:40:59 03:50:42 75° 102° (ESE) 03:59:06 435.800 - 435.900 CW/SSB
Oscar 19 24 Jul 03:49:13 03:53:15 24° 295° (WNW) 03:57:17 437.125 CW, 437.150 USB
PCSat 24 Jul 03:52:43 03:56:37 20° 315° (NW) 04:00:33 145.825 MHz
AO-7 24 Jul 04:06:33 04:12:42 22° 93° (E) 04:18:47 29.400 - 29.500 MHz
TMSAT-1 24 Jul 04:12:56 04:18:16 85° 104° (ESE) 04:23:33 436.925 FM
Oscar 16 24 Jul 04:17:59 04:20:19 13° 300° (WNW) 04:22:38 437.025 USB, Beacon 2401.1428
ITAMSAT 1 24 Jul 04:25:51 04:29:54 24° 295° (WNW) 04:33:55 435.822 SSB
Gurwin Techsat 1B 24 Jul 04:33:55 04:38:59 46° 290° (WNW) 04:44:00 435.225 FM
ISS 24 Jul 04:37:06 04:38:54 14° 353° (N) 04:40:43 145.800 FM
OPAL 24 Jul 04:39:38 04:44:14 39° 260° (W) 04:48:52 ?
AO-27 24 Jul 04:44:16 04:47:26 17° 299° (WNW) 04:50:35 436.795 MHz FM
Uribyol 2 24 Jul 04:47:45 04:50:32 15° 300° (WNW) 04:53:19 436.500 FM
AO-Echo 24 Jul 04:50:46 04:53:11 14° 300° (WNW) 04:55:34 ?
Uosat F 24 Jul 05:02:02 05:07:00 57° 101° (E) 05:11:54 435.120 FM
STRAND 1 24 Jul 05:18:10 05:19:53 12° 58° (ENE) 05:21:36 ?
JAS-1B 24 Jul 05:32:20 05:40:09 29° 304° (WNW) 05:47:19 435.800 - 435.900 CW/SSB
TMSAT-1 24 Jul 05:55:05 05:57:26 13° 301° (WNW) 05:59:46 436.925 FM
AO-7 24 Jul 05:57:54 06:06:14 77° 291° (WNW) 06:14:30 29.400 - 29.500 MHz
Lituanica SAT-1 24 Jul 06:00:11 06:02:05 25° 29° (NNE) 06:03:58 437.275 MHz beacon
KITSAT 1 24 Jul 06:04:01 06:09:41 21° 103° (ESE) 06:15:20 435.175 FM
Hamsat 24 Jul 06:13:07 06:16:34 23° 95° (E) 06:20:01 145.90 MHz
ISS 24 Jul 06:14:26 06:16:40 16° 14° (NNE) 06:18:55 145.800 FM
JAS-2 24 Jul 06:21:50 06:26:46 25° 91° (E) 06:31:16 435.800 - 435.900 CW/SSB, 435.910 FM
MaSat-1 24 Jul 06:31:50 06:34:27 14° 45° (NE) 06:37:02 437.345 MHz
Uosat F 24 Jul 06:42:02 06:45:19 18° 298° (WNW) 06:48:35 435.120 FM
STRAND 1 24 Jul 06:53:07 06:58:16 88° 75° (ENE) 07:03:27 ?
SO-67 24 Jul 07:14:38 07:16:37 15° 93° (E) 07:18:37 435.3500 MHz FM
Lituanica SAT-1 24 Jul 07:33:21 07:34:44 15° 225° (SW) 07:36:07 437.275 MHz beacon
Hamsat 24 Jul 07:48:48 07:52:31 29° 290° (WNW) 07:56:15 145.90 MHz
ISS 24 Jul 07:50:38 07:53:57 57° 33° (NNE) 07:57:16 145.800 FM
AO-7 24 Jul 07:52:34 07:57:42 18° 311° (NW) 08:02:49 29.400 - 29.500 MHz
KITSAT 1 24 Jul 07:56:01 08:04:08 81° 301° (WNW) 08:12:17 435.175 FM
Oscar 10/S400 24 Jul 07:57:04 09:00:12 19° 258° (WSW) 11:01:08 145.825 - 145.975 CW/USB, Beacon 145.810 USB
PANSAT 24 Jul 07:58:00 07:59:02 11° 170° (S) 08:00:03 not established
JAS-2 24 Jul 08:06:14 08:12:11 46° 292° (WNW) 08:17:28 435.800 - 435.900 CW/SSB, 435.910 FM
MaSat-1 24 Jul 08:07:22 08:12:44 76° 64° (ENE) 08:17:52 437.345 MHz
STRAND 1 24 Jul 08:37:35 08:38:07 10° 272° (W) 08:38:39 ?
Saudisat 1A 24 Jul 08:44:10 08:48:18 40° 116° (ESE) 08:52:27 436.775 MHz
HO-68 24 Jul 08:45:45 08:50:27 18° 91° (E) 08:55:07 435.675 MHz FM
SO-67 24 Jul 08:46:42 08:49:46 30° 288° (WNW) 08:52:50 435.3500 MHz FM
PCSat 24 Jul 09:15:03 09:16:10 11° 35° (NE) 09:17:17 145.825 MHz
ISS 24 Jul 09:28:10 09:30:22 16° 229° (SW) 09:32:33 145.800 FM
PANSAT 24 Jul 09:36:39 09:38:27 13° 183° (S) 09:40:15 not established
UKube-1 24 Jul 09:39:24 09:43:10 28° 96° (E) 09:46:54 145.840 MHz, 145.915 MHz
MaSat-1 24 Jul 09:46:43 09:49:23 14° 261° (W) 09:51:59 437.345 MHz
KITSAT 1 24 Jul 09:54:42 10:00:51 23° 324° (NW) 10:07:01 435.175 FM
Sapphire 24 Jul 10:21:55 10:26:34 28° 49° (NE) 10:31:11 437.095 MHz 1200 baud AX-25 AFSK
Saudisat 1A 24 Jul 10:24:24 10:28:01 24° 314° (NW) 10:31:39 436.775 MHz
Oscar 11 24 Jul 10:30:03 10:34:17 52° 100° (E) 10:38:30 145.825 FM, Beacon 2401.500 USB
HO-68 24 Jul 10:31:42 10:38:51 79° 288° (WNW) 10:45:58 435.675 MHz FM
FUNcube-1 24 Jul 10:37:21 10:40:34 21° 94° (E) 10:43:48 145.950 - 145.970 MHz USB
PCSat 24 Jul 10:55:33 11:00:53 53° 57° (ENE) 11:06:09 145.825 MHz
UKube-1 24 Jul 11:15:40 11:19:17 26° 292° (WNW) 11:22:52 145.840 MHz, 145.915 MHz
KITSAT 1 24 Jul 11:59:00 12:00:02 10° 354° (N) 12:01:05 435.175 FM
Sapphire 24 Jul 12:05:01 12:10:10 45° 248° (WSW) 12:15:17 437.095 MHz 1200 baud AX-25 AFSK
Oscar 11 24 Jul 12:07:38 12:10:02 15° 296° (WNW) 12:12:25 145.825 FM, Beacon 2401.500 USB
FUNcube-1 24 Jul 12:13:22 12:17:00 30° 290° (WNW) 12:20:38 145.950 - 145.970 MHz USB
Oscar 16 24 Jul 12:16:54 12:19:40 15° 61° (ENE) 12:22:26 437.025 USB, Beacon 2401.1428
HO-68 24 Jul 12:21:31 12:25:26 16° 307° (NW) 12:29:21 435.675 MHz FM
JAS-1B 24 Jul 12:37:58 12:43:00 16° 47° (NE) 12:48:14 435.800 - 435.900 CW/SSB
PCSat 24 Jul 12:39:52 12:43:52 21° 254° (WSW) 12:47:52 145.825 MHz
AO-27 24 Jul 12:45:23 12:47:38 13° 59° (ENE) 12:49:53 436.795 MHz FM
AO-Echo 24 Jul 12:46:53 12:49:21 13° 60° (ENE) 12:51:49 ?
Uribyol 2 24 Jul 12:47:56 12:50:33 14° 60° (ENE) 12:53:11 436.500 FM
Oscar 19 24 Jul 13:25:54 13:30:55 60° 73° (ENE) 13:35:58 437.125 CW, 437.150 USB
RS-15 24 Jul 13:47:51 13:58:16 47° 110° (ESE) 14:08:26 29.354 - 29.394 USB, Beacon 29.352 USB
Oscar 16 24 Jul 13:53:18 13:58:24 72° 258° (WSW) 14:03:32 437.025 USB, Beacon 2401.1428
KITSAT 1 24 Jul 13:55:18 13:59:50 16° 26° (NNE) 14:04:22 435.175 FM
TMSAT-1 24 Jul 13:56:06 13:59:27 17° 62° (ENE) 14:02:47 436.925 FM
SO-50 24 Jul 13:59:36 14:04:02 71° 120° (ESE) 14:08:34 436.795 FM
ITAMSAT 1 24 Jul 14:03:24 14:08:33 65° 73° (ENE) 14:13:44 435.822 SSB
Gurwin Techsat 1B 24 Jul 14:15:26 14:20:10 34° 68° (ENE) 14:24:56 435.225 FM
AO-27 24 Jul 14:21:10 14:26:24 86° 256° (WSW) 14:31:40 436.795 MHz FM
AO-Echo 24 Jul 14:22:04 14:27:20 85° 256° (WSW) 14:32:43 ?
JAS-1B 24 Jul 14:22:59 14:31:23 63° 68° (ENE) 14:40:55 435.800 - 435.900 CW/SSB
Uribyol 2 24 Jul 14:24:09 14:29:22 78° 257° (WSW) 14:34:35 436.500 FM
UOSAT-12 24 Jul 14:50:22 14:53:19 17° 109° (ESE) 14:56:19 437.025 FM, 437.400 FM
AO-7 24 Jul 15:05:12 15:12:19 33° 58° (ENE) 15:19:26 29.400 - 29.500 MHz
Oscar 19 24 Jul 15:07:40 15:10:40 16° 269° (W) 15:13:40 437.125 CW, 437.150 USB
TMSAT-1 24 Jul 15:33:34 15:38:49 65° 259° (WSW) 15:44:06 436.925 FM
SO-50 24 Jul 15:42:12 15:45:06 17° 319° (NW) 15:48:04 436.795 FM
ITAMSAT 1 24 Jul 15:45:31 15:48:29 15° 269° (W) 15:51:27 435.822 SSB
KITSAT 1 24 Jul 15:49:43 15:57:31 49° 51° (NE) 16:05:15 435.175 FM
Gurwin Techsat 1B 24 Jul 15:55:31 16:00:08 30° 264° (W) 16:04:46 435.225 FM
RS-15 24 Jul 15:59:43 16:10:27 53° 312° (NW) 16:21:06 29.354 - 29.394 USB, Beacon 29.352 USB
Uosat F 24 Jul 16:14:57 16:19:59 77° 74° (ENE) 16:25:02 435.120 FM
JAS-1B 24 Jul 16:14:57 16:22:22 33° 269° (W) 16:30:44 435.800 - 435.900 CW/SSB
UOSAT-12 24 Jul 16:28:30 16:33:01 54° 306° (NW) 16:37:38 437.025 FM, 437.400 FM
JAS-2 24 Jul 16:34:11 16:38:36 17° 56° (ENE) 16:42:54 435.800 - 435.900 CW/SSB, 435.910 FM
OPAL 24 Jul 16:49:06 16:54:03 54° 103° (ESE) 16:59:02 ?
AO-7 24 Jul 16:56:24 17:04:37 60° 257° (WSW) 17:12:54 29.400 - 29.500 MHz
Hamsat 24 Jul 17:07:15 17:09:54 17° 66° (ENE) 17:12:35 145.90 MHz
Saudisat 1A 24 Jul 17:11:07 17:15:06 32° 49° (NE) 17:19:02 436.775 MHz
KITSAT 1 24 Jul 17:45:25 17:52:46 40° 251° (WSW) 18:00:05 435.175 FM
Uosat F 24 Jul 17:57:31 17:59:19 12° 270° (W) 18:01:07 435.120 FM
UOSAT-12 24 Jul 18:13:33 18:14:14 10° 327° (NNW) 18:14:56 437.025 FM, 437.400 FM
JAS-2 24 Jul 18:14:41 18:22:31 76° 73° (ENE) 18:30:03 435.800 - 435.900 CW/SSB, 435.910 FM
Oscar 10/S400 24 Jul 18:14:51 18:26:13 17° 141° (SE) 18:38:13 145.825 - 145.975 CW/USB, Beacon 145.810 USB
RS-15 24 Jul 18:18:13 18:26:10 22° 343° (NNW) 18:34:10 29.354 - 29.394 USB, Beacon 29.352 USB
OPAL 24 Jul 18:29:00 18:32:32 20° 299° (WNW) 18:36:05 ?
Hamsat 24 Jul 18:41:37 18:45:33 41° 262° (W) 18:49:31 145.90 MHz
Saudisat 1A 24 Jul 18:50:50 18:54:36 28° 246° (WSW) 18:58:20 436.775 MHz
STRAND 1 24 Jul 19:04:30 19:08:59 30° 96° (E) 19:13:25 ?
HO-68 24 Jul 19:16:02 19:19:54 16° 52° (NE) 19:23:45 435.675 MHz FM
SO-67 24 Jul 19:19:01 19:22:28 81° 77° (ENE) 19:25:58 435.3500 MHz FM
JAS-2 24 Jul 20:02:13 20:08:02 22° 269° (W) 20:13:44 435.800 - 435.900 CW/SSB, 435.910 FM
UKube-1 24 Jul 20:34:59 20:38:32 25° 67° (ENE) 20:42:07 145.840 MHz, 145.915 MHz
RS-15 24 Jul 20:35:45 20:44:01 23° 20° (NNE) 20:52:23 29.354 - 29.394 USB, Beacon 29.352 USB
STRAND 1 24 Jul 20:43:38 20:48:08 32° 293° (WNW) 20:52:36 ?
SO-50 24 Jul 20:53:08 20:54:31 11° 35° (NE) 20:55:54 436.795 FM
HO-68 24 Jul 20:59:18 21:06:27 77° 71° (ENE) 21:13:38 435.675 MHz FM
Oscar 11 24 Jul 21:24:54 21:28:54 39° 71° (ENE) 21:32:56 145.825 FM, Beacon 2401.500 USB
FUNcube-1 24 Jul 21:34:08 21:37:11 19° 67° (ENE) 21:40:12 145.950 - 145.970 MHz USB
